Location: Castel Madama
(41.9667°N, 12.8667°E)
Time: 08:41:18
(UTC+00:00)

Daily predictions for brighter satellites

Satellite Brightness Start Highest point End
(mag) Time Altitude Azimuth Time Altitude Azimuth Time Altitude Azimuth
ATLAS 5 CENTAUR R/B 2.8 16:00:40 10° NW 16:06:36 75° WSW 16:13:20 10° SSE
H-2A R/B 3.3 16:07:47 10° SE 16:11:16 35° ENE 16:14:46 10° N
Okean O Rocket 2.5 16:07:29 10° S 16:11:47 55° W 16:16:05 10° NNW
Cosmos 2369 3.8 16:07:20 10° S 16:12:54 66° ESE 16:18:34 10° NNE
Cosmos 923 Rocket 4.1 16:09:08 10° S 16:14:16 62° ESE 16:19:25 10° NNE
NOSS 2-3 (E) 3.7 16:10:10 10° SSW 16:14:24 66° ESE 16:19:17 10° NE
Cosmos 1869 3.3 16:10:31 10° S 16:14:28 89° WNW 16:18:24 10° N
Cosmos 2221 4.0 16:12:11 10° SSW 16:16:16 40° WNW 16:20:24 10° N
Cosmos 1666 Rocket 4.0 16:12:17 10° N 16:16:24 39° ENE 16:20:28 10° SSE
Cosmos 1697 Rocket 2.8 16:11:15 10° S 16:16:50 66° ESE 16:22:26 10° NNE
USA 229 DEB 4.3 16:11:12 10° SW 16:17:36 54° NW 16:24:21 10° NNE
USA 229 4.3 16:11:18 10° SW 16:17:42 55° NW 16:24:27 10° NNE
ASTEX 1 4.2 16:14:02 10° N 16:18:56 57° W 16:23:47 10° SSW
NOSS 3-1 (C) 4.0 16:15:03 10° SW 16:20:26 52° NW 16:26:39 10° NNE
Cosmos 2082 3.7 16:15:12 10° NNW 16:20:49 70° ENE 16:26:25 10° SSE
COSMO-SKYMED 1 4.0 16:17:49 10° NE 16:20:58 19° E 16:24:05 10° SE
Cosmos 2056 Rocket 4.4 16:16:54 10° N 16:21:09 26° ENE 16:25:26 10° ESE
ERBS 4.1 16:18:45 10° W 16:21:29 24° NNW 16:24:16 10° NNE
NOSS 3-1 (A) 3.5 16:17:20 10° SW 16:22:48 76° NW 16:29:08 10° NNE
YAOGAN 6 4.2 16:21:14 10° ESE 16:23:11 14° ENE 16:25:09 10° NNE
BREEZE-M DEB (TANK) 4.2 16:20:03 10° WSW 16:23:49 73° NNW 16:36:55 10° ENE
ALOS 4.1 16:19:45 10° SSW 16:24:03 37° W 16:28:23 10° NNW
NOSS 2-3 (D) 3.6 16:19:51 10° SSW 16:24:07 76° SE 16:29:03 10° NE
BREEZE-M DEB (TANK) 4.1 16:14:19 10° W 16:24:36 42° NNW 16:27:59 10° NE
SeaSat 1 3.5 16:20:46 10° ESE 16:24:42 25° NE 16:28:39 10° N
CZ-4B R/B 4.5 16:20:10 10° S 16:25:14 45° W 16:30:18 10° NNW
IRS-1C Rocket 4.1 16:20:34 10° SSE 16:25:50 81° ENE 16:31:09 10° NNW
Cosmos 1656 4.2 16:20:35 10° SW 16:26:04 61° WNW 16:31:30 10° NNE
SMAP 3.0 16:23:29 10° SSE 16:28:07 71° ENE 16:32:46 10° N
Cosmos 1464 Rocket 4.0 16:22:44 10° N 16:28:49 59° E 16:34:51 10° SSE
Cosmos 2360 4.4 16:25:00 10° S 16:30:31 56° ESE 16:36:07 10° NNE
Cosmos 2278 3.7 16:24:56 10° SSW 16:30:33 68° ESE 16:36:13 10° NNE
AQUARIUS 4.1 16:33:20 10° SSE 16:37:49 80° ENE 16:42:20 10° N
Cosmos 1072 Rocket 4.4 16:34:15 10° N 16:40:25 80° E 16:46:39 10° S
Cosmos 397 4.4 16:37:44 10° NNW 16:41:47 64° ENE 16:46:07 10° SE
YAOGAN 1 3.7 16:39:43 10° ESE 16:42:58 21° ENE 16:46:14 10° NNE
Envisat 3.1 16:39:52 10° SE 16:44:45 50° ENE 16:49:39 10° N
Cosmos 1470 Rocket 4.0 16:43:36 10° N 16:47:50 39° ENE 16:52:01 10° SSE
COBE Rocket 3.8 16:53:21 10° N 16:58:06 82° WNW 17:02:44 10° SSW
Cosmos 158 Rocket 4.0 16:53:53 10° S 16:59:07 65° ESE 17:04:16 10° NNE
CZ-4 R/B 1.8 16:57:26 10° SE 17:01:17 39° ENE 17:05:05 10° N
NOSS 2-3 (C) 4.5 16:57:47 10° SW 17:02:01 49° NW 17:06:56 10° NNE
Cosmos 724 4.3 17:00:00 10° NNW 17:05:51 85° WSW 17:11:37 10° SSE
CSL-04 Rocket 3.9 17:02:17 10° SE 17:07:16 42° ENE 17:12:14 10° N
SKYMED 2 3.5 17:05:02 10° NNE 17:09:21 64° E 17:13:39 10° S
Cosmos 1606 3.1 17:06:01 10° SSE 17:09:32 38° E 17:10:39 30° NE
ATLAS 3B R/B 4.4 17:06:35 10° N 17:09:36 13° NNE 17:11:21 12° NE
Cosmos 1452 Rocket 4.4 17:05:13 10° N 17:09:37 26° ENE 17:10:08 25° ENE
Lacrosse 4 Rocket 3.5 17:07:34 10° WSW 17:10:45 22° NW 17:13:55 10° N
Cosmos 1371 Rocket 3.9 17:06:56 10° NNW 17:12:09 82° ENE 17:17:19 10° SSE
Geosat 3.9 17:07:11 10° NNE 17:12:10 84° ESE 17:17:11 10° SSW
Cosmos 1933 3.3 17:11:52 10° S 17:15:52 60° E 17:18:59 16° NNE
Meteor 1-20 Rocket 4.5 17:15:57 10° N 17:21:34 47° ENE 17:27:05 10° SSE
CZ-4 R/B 4.3 17:17:47 10° SSE 17:21:55 75° ENE 17:26:04 10° N
Cosmos 1980 Rocket 2.5 17:17:41 10° SSW 17:23:19 67° WNW 17:29:01 10° NNE
SL-16 R/B 2.7 17:18:40 10° S 17:23:49 38° ESE 17:25:11 33° ENE
Meteor 1-25 Rocket 4.4 17:18:55 10° N 17:24:27 49° ENE 17:30:01 10° SSE
Ariane Rocket 4.3 17:29:42 24° NNE 17:29:42 24° NNE 17:32:14 10° N
GEOS 3 Rocket 3.9 17:25:08 18° NNE 17:29:04 68° NW 17:34:17 10° SW
Cosmos 2034 Rocket 4.4 17:22:48 10° NNW 17:29:06 67° W 17:35:24 10° S
Okean-O 3.8 17:25:04 10° S 17:29:18 44° W 17:33:33 10° NNW
ISS -1.9 17:27:32 10° S 17:29:12 20° SSE 17:29:12 20° SSE
Cosmos 2322 Rocket 2.7 17:25:17 10° S 17:30:21 36° ESE 17:30:43 36° E
BREEZE-M DEB (TANK) 2.2 17:25:40 10° WSW 17:31:04 74° NNW 17:31:39 56° NE
Cosmos 1151 Rocket 4.3 17:32:59 10° SSW 17:37:08 42° WNW 17:41:20 10° N
DELTA 2 R/B (1) 4.0 17:33:34 10° SW 17:38:56 48° SSE 17:40:22 39° ESE
Timation 1 Rocket 4.4 17:33:42 10° NNW 17:39:35 55° ENE 17:41:45 37° ESE
GPS 2-04 Rocket1 3.8 17:37:38 10° WSW 17:40:34 28° S 17:40:34 28° S
Cosmos 1634 Rocket 3.8 17:39:20 10° N 17:45:32 73° E 17:51:40 10° SSE
Cosmos 2263 Rocket 2.0 17:41:47 10° NNW 17:47:20 67° ENE 17:49:12 41° SE
Cosmos 2228 Rocket 3.2 17:45:29 10° SSW 17:49:56 75° W 17:52:41 24° N
USA 215 4.1 17:48:56 29° NE 17:50:03 31° NNE 17:55:37 10° NW
Cosmos 1400 Rocket 3.3 17:51:01 10° S 17:54:07 51° S 17:54:07 51° S
Cosmos 1933 Rocket 4.4 17:51:05 10° NNW 17:55:17 50° W 17:59:30 10° SSW
Cosmos 2142 Rocket 4.4 17:49:29 10° N 17:55:52 68° E 18:02:09 10° SSE
YAOGAN 6 4.2 17:53:14 10° SSW 17:56:24 33° W 17:59:36 10° NNW
COSMO-SKYMED 1 3.9 17:53:13 10° N 17:57:15 38° WNW 18:01:15 10° SW
Hubble Space Telescope 3.4 17:58:00 10° S 17:58:42 11° S 17:58:42 11° S
Meteor 1-14 Rocket 4.2 17:54:30 10° N 18:00:30 71° E 18:03:37 29° SSE
SeaSat 1 3.2 17:57:09 10° S 18:01:55 50° WSW 18:06:44 10° NW
SL-8 R/B 3.8 17:57:31 10° WSW 18:02:19 67° NNW 18:02:24 67° NNW
Cosmos 2279 Rocket 3.9 17:56:27 10° N 18:02:38 61° E 18:02:42 61° E
BREEZE-M R/B 4.1 18:09:33 10° SW 18:12:47 36° SW 18:12:47 36° SW
COSMOS 2455 3.0 18:09:55 10° SSW 18:14:52 57° SSE 18:14:52 57° SSE
YAOGAN 1 4.1 18:14:52 10° SSW 18:18:50 35° W 18:22:50 10° NNW
CZ-4 R/B 4.3 18:33:46 10° SW 18:36:27 17° W 18:39:06 10° NW
CENTAUR R/B 3.9 18:32:23 10° NNW 18:37:54 36° NNE 18:37:54 36° NNE
Centaur D-1A AC-31 3.9 18:50:45 10° SW 18:51:42 16° SSW 18:51:42 16° SSW
ATLAS 2AS CENTAUR R/B 3.9 18:47:48 10° SSW 18:52:05 36° S 18:52:05 36° S
Cosmos 2360 Rocket 4.5 18:55:46 10° SSW 18:56:32 14° SSW 18:56:32 14° SSW
ATLAS 3B R/B 4.4 18:56:15 10° NNW 18:58:36 21° N 18:58:36 21° N
USA 238 DEB 4.4 18:56:24 10° NW 19:01:31 51° NW 19:01:31 51° NW
USA 238 4.4 18:56:30 10° NW 19:01:36 51° NNW 19:01:36 51° NNW
NOSS 3-2 (A) 4.4 18:59:32 10° NW 19:05:08 55° NNW 19:05:08 55° NNW
SL-16 R/B 3.8 19:02:53 10° WSW 19:07:07 31° WNW 19:07:07 31° WNW
Cosmos 2322 Rocket 4.0 19:09:21 10° WSW 19:12:37 27° W 19:12:37 27° W
